This is the latest recevied weather packets stored in our database for station/object KC1BRV. If no packets are shown the sender has not sent any weather packets the latest 10 day(s).
| Time | Temp. | Humidity | Pressure | Rain* | Wind** | Luminosity | Snow |
|---|---|---|---|---|---|---|---|
| 1777721946 | 8.89° C | 84% | 1013.3 hPa | 0 mm | - | 93 W/m² | - |
| 1777721644 | 8.89° C | 84% | 1013.2 hPa | 0 mm | - | 62 W/m² | - |
| 1777721342 | 8.89° C | 84% | 1013.3 hPa | 0 mm | - | 44 W/m² | - |
| 1777721040 | 8.33° C | 85% | 1013.4 hPa | 0 mm | - | 66 W/m² | - |
| 1777720737 | 8.33° C | 86% | 1013.2 hPa | 0 mm | - | 46 W/m² | - |
| 1777720434 | 8.33° C | 86% | 1013.1 hPa | 0 mm | - | 53 W/m² | - |
| 1777720131 | 7.78° C | 86% | 1013 hPa | 0 mm | - | 66 W/m² | - |
| 1777719829 | 7.78° C | 86% | 1013.1 hPa | 0 mm | - | 29 W/m² | - |
| 1777719526 | 7.78° C | 86% | 1013.2 hPa | 0 mm | - | 27 W/m² | - |
| 1777719223 | 7.78° C | 86% | 1013.1 hPa | 0 mm | - | 22 W/m² | - |
| 1777718921 | 7.78° C | 86% | 1013 hPa | 0 mm | - | 21 W/m² | - |
| 1777718618 | 7.78° C | 86% | 1013.2 hPa | 0 mm | - | 28 W/m² | - |
| 1777718315 | 7.78° C | 86% | 1013 hPa | 0 mm | - | 25 W/m² | - |
| 1777718013 | 7.78° C | 86% | 1012.9 hPa | 0 mm | - | 25 W/m² | - |
| 1777717710 | 7.78° C | 86% | 1013 hPa | 0 mm | - | 18 W/m² | - |
| 1777717406 | 7.78° C | 86% | 1012.9 hPa | 0 mm | - | 10 W/m² | - |
| 1777717104 | 7.78° C | 86% | 1012.8 hPa | 0 mm | - | 8 W/m² | - |
| 1777716802 | 7.78° C | 86% | 1012.9 hPa | 0 mm | - | 9 W/m² | - |
| 1777716500 | 7.22° C | 86% | 1013 hPa | 0 mm | - | 7 W/m² | - |
| 1777716199 | 7.22° C | 86% | 1012.8 hPa | 0 mm | - | 5 W/m² | - |
| 1777715896 | 7.22° C | 86% | 1012.7 hPa | 0 mm | - | 5 W/m² | - |
| 1777715594 | 7.22° C | 86% | 1012.6 hPa | 0 mm | - | 3 W/m² | - |
| 1777715291 | 7.22° C | 85% | 1012.7 hPa | 0 mm | - | 2 W/m² | - |
| 1777714989 | 7.22° C | 85% | 1012.9 hPa | 0 mm | - | 2 W/m² | - |
| 1777714686 | 7.22° C | 86% | 1013 hPa | 0 mm | - | 1 W/m² | - |
* Rain latest hour (hover to see other rain measurements)
** Current wind speed in m/s (hover to see current wind gust speed)